GW3733 Weather Reports


time (UTC)temp
F
wind
direction
speed
knots
gust
knots
rain 1hr
in
rain 24hr
in
rain mn
in
humidity
%
barometer
mb
20260508130743 56 35 1.7 2.6 0.00 0.00 0.00 45 1010.9
20260508130240 57 297 3.5 3.5 0.00 0.00 0.00 44 1010.9
20260508125736 57 31 0.9 1.7 0.00 0.00 0.00 45 1010.8
20260508125232 57 3 0.9 1.7 0.00 0.00 0.00 46 1010.8
20260508124731 56 40 0.9 1.7 0.00 0.00 0.00 47 1010.9
20260508124227 55 27 0.0 0.9 0.00 0.00 0.00 51 1010.9
20260508123726 54 355 0.0 0.0 0.00 0.00 0.00 56 1011.2
20260508123223 53 35 0.9 1.7 0.00 0.00 0.00 56 1010.9
20260508122719 51 7 0.0 0.9 0.00 0.00 0.00 61 1011.1
20260508122216 50 4 0.0 0.0 0.00 0.00 0.00 61 1011.0
20260508121714 50 57 0.0 0.9 0.00 0.00 0.00 64 1011.1
20260508121212 49 35 0.0 0.9 0.00 0.00 0.00 70 1011.2
20260508120709 47 15 0.0 0.0 0.00 0.00 0.00 76 1011.2
20260508120207 45 6 0.0 0.0 0.00 0.00 0.00 83 1011.1
20260508115705 44 9 0.0 0.0 0.00 0.00 0.00 84 1011.3
20260508115201 42 4 0.0 0.0 0.00 0.00 0.00 86 1011.3
20260508114658 41 3 0.0 0.0 0.00 0.00 0.00 87 1011.0
20260508114155 40 6 0.0 0.0 0.00 0.00 0.00 89 1011.2
20260508113652 39 6 0.0 0.0 0.00 0.00 0.00 91 1011.0
20260508113150 38 353 0.0 0.0 0.00 0.00 0.00 93 1010.8
20260508112646 37 357 0.0 0.0 0.00 0.00 0.00 98 1010.8
20260508112143 36 14 0.0 0.0 0.00 0.00 0.00 99 1011.1
20260508111639 35 6 0.0 0.0 0.00 0.00 0.00 99 1011.0
20260508111137 34 5 0.0 0.0 0.00 0.00 0.00 98 1010.9
20260508110635 34 5 0.0 0.0 0.00 0.00 0.00 98 1010.8
20260508110131 33 5 0.0 0.0 0.00 0.00 0.00 98 1010.6
20260508105626 33 5 0.0 0.0 0.00 0.00 0.00 98 1010.6
20260508105123 33 5 0.0 0.0 0.00 0.00 0.00 98 1010.6
20260508104621 33 5 0.0 0.0 0.00 0.00 0.00 98 1010.6
20260508104117 32 5 0.0 0.0 0.00 0.00 0.00 98 1010.4
20260508103614 32 5 0.0 0.0 0.00 0.00 0.00 98 1010.5
20260508103112 32 4 0.0 0.0 0.00 0.00 0.00 98 1010.2
20260508102609 32 4 0.0 0.0 0.00 0.00 0.00 98 1010.4
20260508102107 32 4 0.0 0.0 0.00 0.00 0.00 98 1010.1
20260508101604 32 4 0.0 0.0 0.00 0.00 0.00 98 1010.2
20260508101101 32 7 0.0 0.0 0.00 0.00 0.00 98 1010.2
20260508100559 32 0 0.0 0.0 0.00 0.00 0.00 97 1010.0
20260508100055 32 1 0.0 0.0 0.00 0.00 0.00 97 1010.1
20260508095553 32 1 0.0 0.0 0.00 0.00 0.00 97 1009.8
20260508095049 32 1 0.0 0.0 0.00 0.00 0.00 97 1010.0
20260508094547 32 1 0.0 0.0 0.00 0.00 0.00 97 1010.1
20260508094044 32 1 0.0 0.0 0.00 0.00 0.00 97 1010.3
20260508093541 33 1 0.0 0.0 0.00 0.00 0.00 97 1010.2
20260508093038 33 0 0.0 0.0 0.00 0.00 0.00 97 1010.0
20260508092535 33 2 0.0 0.0 0.00 0.00 0.00 97 1010.2
20260508092034 33 2 0.0 0.0 0.00 0.00 0.00 96 1010.3
20260508091531 33 2 0.0 0.0 0.00 0.00 0.00 96 1010.3
20260508091028 33 2 0.0 0.0 0.00 0.00 0.00 96 1010.1
20260508090526 33 0 0.0 0.0 0.00 0.00 0.00 96 1010.1
20260508090022 33 3 0.0 0.0 0.00 0.00 0.00 96 1010.2
20260508085519 33 3 0.0 0.0 0.00 0.00 0.00 96 1010.1
20260508085016 34 3 0.0 0.0 0.00 0.00 0.00 96 1009.8
20260508084513 33 3 0.0 0.0 0.00 0.00 0.00 95 1009.9
20260508084010 34 3 0.0 0.0 0.00 0.00 0.00 95 1009.8
20260508083507 34 3 0.0 0.0 0.00 0.00 0.00 95 1009.7
20260508083004 34 3 0.0 0.0 0.00 0.00 0.00 94 1009.6
20260508082459 35 3 0.0 0.0 0.00 0.00 0.00 94 1009.8
20260508081957 35 3 0.0 0.0 0.00 0.00 0.00 93 1009.5
20260508081453 35 3 0.0 0.0 0.00 0.00 0.00 93 1009.6
20260508080944 35 2 0.0 0.0 0.00 0.00 0.00 92 1009.6
20260508080443 36 2 0.0 0.0 0.00 0.00 0.00 91 1009.5
20260508075939 36 3 0.0 0.0 0.00 0.00 0.00 90 1009.3
20260508075436 36 3 0.0 0.0 0.00 0.00 0.00 90 1009.5
20260508074933 37 7 0.0 0.0 0.00 0.00 0.00 89 1009.4
20260508074431 37 0 0.0 0.0 0.00 0.00 0.00 89 1009.5
20260508073928 38 3 0.0 0.0 0.00 0.00 0.00 86 1009.4
20260508073425 38 353 0.9 0.9 0.00 0.00 0.00 85 1009.9
20260508072922 39 2 0.0 0.0 0.00 0.00 0.00 85 1009.4
20260508072418 39 10 0.0 0.0 0.00 0.00 0.00 83 1009.7
20260508071916 40 22 0.0 0.0 0.00 0.00 0.00 84 1009.4
20260508071414 40 359 0.0 0.0 0.00 0.00 0.00 83 1009.6
20260508070911 41 13 0.0 0.0 0.00 0.00 0.00 80 1009.4
20260508070409 41 20 0.0 0.0 0.00 0.00 0.00 82 1009.5
20260508065907 41 0 0.0 0.0 0.00 0.00 0.00 80 1009.4
20260508065404 40 358 0.0 0.0 0.00 0.00 0.00 84 1009.5
20260508064902 40 1 0.0 0.0 0.00 0.00 0.00 81 1009.4
20260508064359 40 4 0.0 0.0 0.00 0.00 0.00 82 1009.4
20260508063857 40 15 0.0 0.0 0.00 0.00 0.00 83 1009.4
20260508063355 41 350 0.0 0.0 0.00 0.00 0.00 82 1009.5
20260508062851 40 19 0.0 0.0 0.00 0.00 0.00 83 1009.4
20260508062349 41 22 0.0 0.9 0.00 0.00 0.00 81 1009.2
20260508061846 41 1 0.0 0.0 0.00 0.00 0.00 81 1009.4
20260508061343 42 10 0.0 0.0 0.00 0.00 0.00 78 1009.3
20260508060840 41 3 0.0 0.9 0.00 0.00 0.00 82 1009.3
20260508060338 42 7 0.0 0.0 0.00 0.00 0.00 79 1009.1
20260508055832 43 358 0.0 0.0 0.00 0.00 0.00 78 1009.3
20260508055330 43 336 0.9 0.9 0.00 0.00 0.00 75 1009.5
20260508054826 44 199 1.7 1.7 0.00 0.00 0.00 70 1009.3
20260508054324 45 3 0.0 0.0 0.00 0.00 0.00 71 1009.3
20260508053821 44 340 0.9 1.7 0.00 0.00 0.00 65 1009.3
20260508053319 43 15 0.0 0.9 0.00 0.00 0.00 75 1009.6
20260508052815 44 358 0.0 0.0 0.00 0.00 0.00 76 1009.6
20260508052313 45 22 0.0 0.0 0.00 0.00 0.00 74 1009.2
20260508051809 46 343 0.9 0.9 0.00 0.00 0.00 67 1009.4
20260508051304 47 357 0.0 0.0 0.00 0.00 0.00 69 1009.3
20260508050801 48 352 1.7 1.7 0.00 0.00 0.00 66 1009.4
20260508050258 48 341 0.9 2.6 0.00 0.00 0.00 66 1009.4
20260508045754 47 6 0.0 0.9 0.00 0.00 0.00 61 1009.3
20260508045252 47 31 0.0 0.9 0.00 0.00 0.00 67 1009.1
20260508044749 46 336 0.0 0.0 0.00 0.00 0.00 63 1009.3
20260508044245 48 17 0.9 0.9 0.00 0.00 0.00 66 1009.1
20260508043741 50 338 0.0 0.9 0.00 0.00 0.00 59 1009.3
20260508043239 50 36 0.9 0.9 0.00 0.00 0.00 56 1008.9
20260508042735 51 12 0.0 0.0 0.00 0.00 0.00 51 1009.0
20260508042233 51 0 1.7 1.7 0.00 0.00 0.00 55 1008.9
20260508041729 50 153 1.7 1.7 0.00 0.00 0.00 52 1008.6
20260508041226 51 6 0.0 0.0 0.00 0.00 0.00 56 1008.4
20260508040723 52 51 0.9 0.9 0.00 0.00 0.00 50 1008.4
20260508040220 53 305 0.9 0.9 0.00 0.00 0.00 51 1008.5
20260508035717 51 103 0.9 0.9 0.00 0.00 0.00 56 1008.5
20260508035215 51 0 0.0 0.0 0.00 0.00 0.00 59 1008.2
20260508034711 51 336 0.0 0.9 0.00 0.00 0.00 49 1008.3
20260508034209 50 43 0.9 0.9 0.00 0.00 0.00 57 1008.2
20260508033705 51 11 0.0 0.9 0.00 0.00 0.00 58 1007.9
20260508033204 52 8 0.0 0.0 0.00 0.00 0.00 55 1008.1
20260508032701 48 69 0.9 0.9 0.00 0.00 0.00 63 1008.1
20260508032158 49 211 1.7 1.7 0.00 0.00 0.00 70 1007.9
20260508031655 48 186 1.7 1.7 0.00 0.00 0.00 64 1007.8
20260508031151 47 14 1.7 2.6 0.00 0.00 0.00 67 1008.0
20260508030647 46 27 0.9 0.9 0.00 0.00 0.00 62 1007.8
20260508030145 45 31 0.9 0.9 0.00 0.00 0.00 73 1007.8
20260508025641 45 42 0.9 0.9 0.00 0.00 0.00 76 1007.8
20260508025138 45 15 0.0 0.0 0.00 0.00 0.00 78 1007.9
20260508024634 46 354 1.7 2.6 0.00 0.00 0.00 77 1007.6
20260508024132 45 8 0.0 0.0 0.00 0.00 0.00 76 1007.8
20260508023627 45 31 0.0 0.9 0.00 0.00 0.00 75 1007.8
20260508023126 46 4 0.0 0.0 0.00 0.00 0.00 77 1007.6
20260508022621 46 12 0.0 0.0 0.00 0.00 0.00 74 1007.9
20260508022119 47 17 0.9 0.9 0.00 0.00 0.00 73 1007.5
20260508021614 47 1 0.9 1.7 0.00 0.00 0.00 75 1007.5
20260508021110 47 6 0.0 0.0 0.00 0.00 0.00 73 1007.5
20260508020608 47 353 0.9 0.9 0.00 0.00 0.00 74 1007.5
20260508020105 48 8 0.0 0.0 0.00 0.00 0.00 72 1007.4
20260508015603 49 338 0.0 0.0 0.00 0.00 0.00 69 1007.3
20260508015059 50 3 0.0 0.0 0.00 0.00 0.00 70 1007.1
20260508014556 50 26 0.0 0.0 0.00 0.00 0.00 65 1007.1
20260508014052 50 334 0.0 0.0 0.00 0.00 0.00 63 1007.1
20260508013548 53 14 0.0 0.0 0.00 0.00 0.00 54 1007.1
20260508013045 53 34 0.0 0.0 0.00 0.00 0.00 64 1007.1
20260508012543 51 312 1.7 1.7 0.00 0.00 0.00 59 1007.0
20260508012040 51 10 0.0 0.0 0.00 0.00 0.00 63 1007.0
20260508011538 53 4 0.0 0.0 0.00 0.00 0.00 60 1006.7
20260508011035 54 354 0.0 0.0 0.00 0.00 0.00 57 1006.8
20260508010532 56 20 0.0 0.0 0.00 0.00 0.00 50 1006.5
20260508010030 57 341 0.0 0.0 0.00 0.00 0.00 47 1006.6
20260508005526 56 2 0.9 0.9 0.00 0.00 0.00 47 1006.5
20260508005023 57 208 0.9 1.7 0.00 0.00 0.00 47 1006.5
20260508004519 57 93 2.6 2.6 0.00 0.00 0.00 48 1006.3
20260508004016 57 358 0.0 0.0 0.00 0.00 0.00 49 1006.3
20260508003512 58 353 0.9 0.9 0.00 0.00 0.00 45 1006.4
20260508003010 58 354 0.0 0.0 0.00 0.00 0.00 44 1006.5
20260508002505 58 112 0.9 1.7 0.00 0.00 0.00 44 1006.2
20260508002003 58 216 1.7 1.7 0.00 0.00 0.00 46 1006.2
20260508001458 58 346 0.9 0.9 0.00 0.00 0.00 44 1006.2
20260508000954 58 306 0.9 0.9 0.00 0.00 0.00 46 1006.0
20260508000445 58 349 0.0 0.9 0.00 0.00 0.00 46 1006.0
20260507235942 58 30 0.0 0.9 0.00 0.00 0.00 43 1005.7
20260507235439 59 343 0.0 0.9 0.00 0.00 0.00 43 1005.7
20260507234937 59 13 2.6 2.6 0.00 0.00 0.00 43 1005.6
20260507234433 59 318 0.0 0.9 0.00 0.00 0.00 42 1005.7
20260507233929 60 349 0.9 1.7 0.00 0.00 0.00 45 1005.6
20260507233427 60 37 0.9 0.9 0.00 0.00 0.00 40 1005.6
20260507232925 60 275 0.9 2.6 0.00 0.00 0.00 38 1005.6
20260507232421 61 339 0.0 0.9 0.00 0.00 0.00 41 1005.4
20260507231918 61 43 0.0 0.9 0.00 0.00 0.00 39 1005.6
20260507231415 62 347 0.0 0.0 0.00 0.00 0.00 41 1005.6
20260507230911 62 218 3.5 3.5 0.00 0.00 0.00 40 1005.3
20260507230409 62 298 0.9 0.9 0.00 0.00 0.00 41 1005.3
20260507225908 62 206 0.9 0.9 0.00 0.00 0.00 40 1005.1
20260507225405 62 313 2.6 5.2 0.00 0.00 0.00 39 1005.4
20260507224901 62 321 1.7 1.7 0.00 0.00 0.00 40 1005.2
20260507224357 63 323 0.0 0.0 0.00 0.00 0.00 37 1005.3
20260507223853 63 2 0.9 0.9 0.00 0.00 0.00 43 1004.8
20260507223350 64 316 3.5 3.5 0.00 0.00 0.00 38 1004.7
20260507222847 63 324 1.7 2.6 0.00 0.00 0.00 37 1004.7
20260507222343 64 337 1.7 2.6 0.00 0.00 0.00 37 1004.9
20260507221840 64 317 1.7 1.7 0.00 0.00 0.00 42 1004.7
20260507221337 64 226 3.5 5.2 0.00 0.00 0.00 38 1004.5
20260507220832 64 92 1.7 2.6 0.00 0.00 0.00 40 1004.5
20260507220331 63 352 0.9 2.6 0.00 0.00 0.00 39 1004.5
20260507215827 63 318 1.7 2.6 0.00 0.00 0.00 41 1004.5
20260507215324 64 292 3.5 3.5 0.00 0.00 0.00 37 1004.3
20260507214821 63 339 1.7 2.6 0.00 0.00 0.00 46 1004.4
20260507214319 64 2 1.7 1.7 0.00 0.00 0.00 38 1004.4
20260507213813 66 343 3.5 5.2 0.00 0.00 0.00 38 1004.1
20260507213311 66 316 1.7 1.7 0.00 0.00 0.00 36 1004.2
20260507212808 66 345 1.7 1.7 0.00 0.00 0.00 37 1004.0
20260507212306 64 25 0.9 0.9 0.00 0.00 0.00 42 1004.1
20260507211800 65 35 5.2 7.0 0.00 0.00 0.00 36 1003.9
20260507211257 65 340 3.5 3.5 0.00 0.00 0.00 38 1003.9
20260507210754 66 328 1.7 1.7 0.00 0.00 0.00 37 1003.7
20260507210251 65 29 0.9 0.9 0.00 0.00 0.00 38 1003.7
20260507205747 64 295 2.6 2.6 0.00 0.00 0.00 36 1004.1
20260507205244 63 352 1.7 1.7 0.00 0.00 0.00 40 1004.2
20260507204740 64 314 3.5 5.2 0.00 0.00 0.00 40 1004.1
20260507204238 66 345 1.7 2.6 0.00 0.00 0.00 37 1003.9
20260507203736 66 345 2.6 5.2 0.00 0.00 0.00 34 1003.8
20260507203233 65 299 0.9 1.7 0.00 0.00 0.00 37 1004.2
20260507202729 68 307 1.7 1.7 0.00 0.00 0.00 34 1003.9
20260507202225 67 324 3.5 3.5 0.00 0.00 0.00 35 1004.0
20260507201720 67 0 0.9 0.9 0.00 0.00 0.00 37 1004.1
20260507201218 66 146 1.7 2.6 0.00 0.00 0.00 34 1004.2
20260507200714 65 304 1.7 1.7 0.00 0.00 0.00 35 1004.2
20260507200210 67 332 0.0 0.9 0.00 0.00 0.00 34 1004.1
20260507195706 67 336 0.9 0.9 0.00 0.00 0.00 38 1004.1
20260507195203 68 2 1.7 1.7 0.00 0.00 0.00 39 1004.1
20260507194700 67 22 3.5 6.1 0.00 0.00 0.00 37 1004.2
20260507194156 67 339 1.7 2.6 0.00 0.00 0.00 39 1004.2
20260507193653 68 277 1.7 2.6 0.00 0.00 0.00 35 1004.3
20260507193150 68 311 2.6 2.6 0.00 0.00 0.00 36 1004.4
20260507192646 67 333 2.6 2.6 0.00 0.00 0.00 38 1004.2
20260507192143 67 229 3.5 5.2 0.00 0.00 0.00 35 1004.2
20260507191639 67 259 2.6 3.5 0.00 0.00 0.00 34 1004.4
20260507191136 66 305 4.3 5.2 0.00 0.00 0.00 41 1004.4
20260507190633 66 326 0.9 1.7 0.00 0.00 0.00 36 1004.3
20260507190132 67 293 1.7 2.6 0.00 0.00 0.00 36 1004.3
20260507185630 66 1 4.3 5.2 0.00 0.00 0.00 38 1004.3
20260507185126 67 318 1.7 1.7 0.00 0.00 0.00 37 1004.2
20260507184624 67 8 0.9 0.9 0.00 0.00 0.00 45 1004.4
20260507184122 67 338 2.6 2.6 0.00 0.00 0.00 39 1004.5
20260507183618 67 353 0.9 0.9 0.00 0.00 0.00 41 1004.7
20260507183115 65 310 1.7 2.6 0.00 0.00 0.00 44 1004.3
20260507182611 67 334 1.7 2.6 0.00 0.00 0.00 42 1004.5
20260507182107 66 328 0.9 0.9 0.00 0.00 0.00 38 1004.7
20260507181604 66 354 0.9 0.9 0.00 0.00 0.00 45 1004.9
20260507181100 66 15 2.6 2.6 0.00 0.00 0.00 40 1004.7
20260507180558 66 343 0.9 0.9 0.00 0.00 0.00 40 1004.5
20260507180054 65 341 1.7 1.7 0.00 0.00 0.00 44 1004.9
20260507175550 65 350 0.9 0.9 0.00 0.00 0.00 52 1005.0
20260507175048 64 317 0.0 0.9 0.00 0.00 0.00 44 1005.1
20260507174544 63 320 0.9 0.9 0.00 0.00 0.00 42 1005.2
20260507174042 64 48 1.7 1.7 0.00 0.00 0.00 42 1005.7
20260507173539 64 315 2.6 2.6 0.00 0.00 0.00 48 1005.4
20260507173036 63 32 3.5 3.5 0.00 0.00 0.00 43 1005.7
20260507172532 63 332 0.9 1.7 0.00 0.00 0.00 46 1005.6
20260507172029 62 89 2.6 2.6 0.00 0.00 0.00 46 1005.8
20260507171524 63 333 0.9 0.9 0.00 0.00 0.00 43 1005.8
20260507171022 63 308 1.7 2.6 0.00 0.00 0.00 49 1006.0
20260507170519 62 337 1.7 3.5 0.00 0.00 0.00 44 1006.2
20260507170016 62 3 3.5 5.2 0.00 0.00 0.00 45 1006.1
20260507165511 62 331 1.7 2.6 0.00 0.00 0.00 47 1006.4
20260507165008 61 6 1.7 2.6 0.00 0.00 0.00 46 1006.4
20260507164504 61 1 1.7 1.7 0.00 0.00 0.00 46 1006.5
20260507164001 62 236 2.6 2.6 0.00 0.00 0.00 48 1006.5
20260507163458 61 331 0.9 0.9 0.00 0.00 0.00 50 1006.5
20260507162955 61 346 1.7 2.6 0.00 0.00 0.00 49 1006.5
20260507162451 61 322 0.0 0.9 0.00 0.00 0.00 51 1006.7
20260507161948 61 243 0.9 1.7 0.00 0.00 0.00 47 1006.8
20260507161444 61 28 1.7 2.6 0.00 0.00 0.00 47 1006.9
20260507160941 61 282 1.7 1.7 0.00 0.00 0.00 54 1007.0
20260507160437 60 326 0.9 2.6 0.00 0.00 0.00 47 1006.9
20260507155933 60 162 1.7 2.6 0.00 0.00 0.00 47 1007.1
20260507155429 61 6 2.6 5.2 0.00 0.00 0.00 50 1007.2
20260507154926 60 251 1.7 1.7 0.00 0.00 0.00 51 1007.2
20260507154423 59 96 1.7 2.6 0.00 0.00 0.00 47 1007.2
20260507153920 59 313 2.6 3.5 0.00 0.00 0.00 49 1007.4
20260507153417 59 264 1.7 1.7 0.00 0.00 0.00 52 1007.5
20260507152913 58 244 1.7 1.7 0.00 0.00 0.00 50 1007.4
20260507152409 58 353 0.9 0.9 0.00 0.00 0.00 54 1007.2
20260507151905 58 32 3.5 6.1 0.00 0.00 0.00 52 1007.4
20260507151402 58 12 1.7 2.6 0.00 0.00 0.00 50 1007.4
20260507150859 58 358 0.0 0.0 0.00 0.00 0.00 54 1007.5
20260507150356 57 5 0.9 1.7 0.00 0.00 0.00 52 1007.8
20260507145852 58 286 3.5 3.5 0.00 0.00 0.00 55 1007.9
20260507145348 59 333 0.9 0.9 0.00 0.00 0.00 51 1008.2
20260507144845 57 13 0.9 0.9 0.00 0.00 0.00 49 1008.3
20260507144343 57 349 1.7 1.7 0.00 0.00 0.00 55 1008.6
20260507143839 57 321 3.5 3.5 0.00 0.00 0.00 52 1008.5
20260507143336 55 347 0.9 0.9 0.00 0.00 0.00 54 1008.7
20260507142832 56 20 1.7 2.6 0.00 0.00 0.00 54 1008.4
20260507142324 56 11 0.9 0.9 0.00 0.00 0.00 53 1008.4
20260507141821 56 16 0.0 0.0 0.00 0.00 0.00 58 1008.4
20260507141317 54 18 1.7 1.7 0.00 0.00 0.00 59 1008.6
20260507140813 53 358 0.0 0.0 0.00 0.00 0.00 57 1008.6
20260507140310 53 328 1.7 1.7 0.00 0.00 0.00 59 1008.8
20260507135808 53 1 0.9 0.9 0.00 0.00 0.00 60 1008.9
20260507135306 54 343 0.9 0.9 0.00 0.00 0.00 59 1008.9
20260507134802 53 2 0.0 0.9 0.00 0.00 0.00 60 1008.9
20260507134258 53 4 0.9 0.9 0.00 0.00 0.00 59 1009.2
20260507133753 53 352 0.9 1.7 0.00 0.00 0.00 58 1009.0
20260507133250 52 352 0.0 0.9 0.00 0.00 0.00 59 1008.9
20260507132748 52 38 1.7 2.6 0.00 0.00 0.00 59 1009.2
20260507132244 52 357 0.0 0.0 0.00 0.00 0.00 62 1009.2
20260507131741 51 3 0.9 0.9 0.00 0.00 0.00 58 1009.2
20260507131238 51 348 0.9 0.9 0.00 0.00 0.00 57 1009.1